Lancaster, CA

7:48 PM PDT on May 25, 2018 (GMT -0700)
Gen Fox

Weather History for KWJF - July, 2012

Change the Weather History Date:

Thursday, July 12, 2012

  Actual Average Record
Temperature  
Mean Temperature 91 °F 82 °F  
Max Temperature 97 °F 98 °F 107 °F (2002)
Min Temperature 85 °F 67 °F 52 °F (1974)
Degree Days  
Heating Degree Days 0    
Month to date heating degree days 0  
Since 1 June heating degree days 7  
Since 1 July heating degree days 0  
Cooling Degree Days 26    
Month to date cooling degree days 213  
Year to date cooling degree days 832  
Since 1 June cooling degree days 570  
Growing Degree Days 40 (Base 50)    
Moisture  
Dew Point 48 °F    
Average Humidity 25    
Maximum Humidity 32    
Minimum Humidity 18    
Precipitation  
Precipitation T in 0.00 in 0.72 in (1999)
Month to date precipitation T 0.03  
Year to date precipitation 1.70 4.94  
Since 1 July precipitation T  
Snow  
Snow 0.00 in - 0.00 in ()
Month to date snowfall 0.0  
Since 1 June snowfall 0.0  
Since 1 July snowfall 0.0  
Snow Depth 0.00 in    
Sea Level Pressure  
Sea Level Pressure 29.82 in    
Wind  
Wind Speed 11 mph (WSW)    
Max Wind Speed 20 mph    
Max Gust Speed 24 mph    
Visibility 10 miles    
Events      
T = Trace of Precipitation, MM = Missing Value Source: NWS Daily Summary

Daily Weather History Graph

Daily Weather History Graph

Search for Another Location

Airport or City:

Astronomy

Jul. 12, 2012 Rise Set
Actual Time 5:49 AM PDT 8:07 PM PDT
Civil Twilight 5:20 AM PDT 8:36 PM PDT
Nautical Twilight 4:44 AM PDT 9:11 PM PDT
Astronomical Twilight 4:06 AM PDT 9:50 PM PDT
Moon 12:50 AM PDT (7/12) 2:48 PM PDT (7/12)
Length of Visible Light 15h 16m
Length of Day
14h 18m
Waning Crescent, 34% of the Moon is Illuminated
Jul 12
Waning Crescent
Jul 18
New
Jul 26
First Quarter
Aug 1
Full
Aug 9
Last Quarter

Hourly Weather History & Observations

Time (PDT) Temp. Heat Index Dew Point Humidity Pressure Visibility Wind Dir Wind Speed Gust Speed Precip Events Conditions
12:56 AM 89.1 °F - 42.1 °F 19% 29.76 in 10.0 mi West 11.5 mph - N/A   Clear
1:56 AM 88.0 °F - 43.0 °F 21% 29.75 in 10.0 mi West 11.5 mph - N/A   Clear
2:56 AM 87.1 °F - 43.0 °F 21% 29.75 in 10.0 mi WSW 10.4 mph - N/A   Clear
3:56 AM 88.0 °F - 43.0 °F 21% 29.75 in 10.0 mi West 12.7 mph - N/A   Clear
4:54 AM 87.8 °F - 42.8 °F 21% 29.85 in 10.0 mi WNW 10.4 mph - N/A   Clear
4:56 AM 86.0 °F - 43.0 °F 22% 29.75 in 10.0 mi WNW 9.2 mph - N/A   Clear
5:56 AM 87.1 °F - 43.0 °F 21% 29.77 in 10.0 mi WSW 12.7 mph - N/A   Clear
6:56 AM 89.1 °F - 42.1 °F 19% 29.79 in 10.0 mi WNW 10.4 mph - N/A   Clear
7:56 AM 89.1 °F - 43.0 °F 20% 29.85 in 10.0 mi North 6.9 mph - N/A   Clear
8:56 AM 90.0 °F - 43.0 °F 19% 29.86 in 10.0 mi WSW 9.2 mph - N/A   Clear
9:56 AM 91.0 °F - 43.0 °F 19% 29.86 in 10.0 mi South 3.5 mph - N/A   Mostly Cloudy
10:56 AM 91.9 °F - 45.0 °F 20% 29.88 in 10.0 mi West 6.9 mph - N/A   Clear
11:56 AM 93.9 °F - 48.9 °F 21% 29.86 in 10.0 mi WSW 10.4 mph - N/A   Clear
12:56 PM 95.0 °F 92.7 °F 54.0 °F 25% 29.85 in 10.0 mi WSW 17.3 mph - N/A   Clear
1:56 PM 95.0 °F 92.7 °F 54.0 °F 25% 29.84 in 10.0 mi WSW 16.1 mph 23.0 mph N/A   Clear
2:56 PM 95.0 °F 92.7 °F 54.0 °F 25% 29.83 in 10.0 mi WSW 17.3 mph - N/A   Partly Cloudy
3:56 PM 93.0 °F 90.8 °F 54.0 °F 27% 29.83 in 10.0 mi WSW 16.1 mph - N/A   Scattered Clouds
4:56 PM 93.9 °F 91.7 °F 54.0 °F 26% 29.82 in 10.0 mi SW 12.7 mph - N/A   Clear
5:56 PM 93.9 °F 91.4 °F 53.1 °F 25% 29.81 in 10.0 mi South 8.1 mph - N/A   Clear
6:56 PM 90.0 °F 87.7 °F 54.0 °F 29% 29.82 in 10.0 mi West 11.5 mph - N/A   Mostly Cloudy
7:56 PM 89.1 °F 86.9 °F 54.0 °F 30% 29.82 in 10.0 mi West 12.7 mph - N/A   Mostly Cloudy
8:56 PM 87.1 °F 84.9 °F 53.1 °F 31% 29.83 in 10.0 mi West 9.2 mph - N/A   Partly Cloudy
9:56 PM 87.1 °F - 51.1 °F 29% 29.84 in 10.0 mi SW 4.6 mph - N/A   Clear
10:56 PM 89.1 °F - 48.0 °F 24% 29.83 in 10.0 mi West 11.5 mph 20.7 mph 0.00 in   Mostly Cloudy
11:56 PM 84.9 °F - 51.1 °F 31% 29.84 in 10.0 mi WNW 3.5 mph - N/A   Mostly Cloudy